DW7729 Weather Reports


Display with metric or nautical units.
time (UTC)temp
F
wind
direction
speed
MPH
gust
MPH
rain 1hr
in
rain 24hr
in
rain mn
in
humidity
%
barometer
mb
20180921231111 71 301 6.0 14.0 0.00 0.01 0.00 59 1013.5
20180921230621 71 326 4.0 15.0 0.00 0.01 0.00 60 1013.5
20180921230114 71 344 8.0 15.0 0.00 0.01 0.00 61 1013.2
20180921225625 72 290 5.0 16.0 0.00 0.01 0.00 60 1013.1
20180921225116 72 219 4.0 11.0 0.00 0.01 0.00 59 1013.2
20180921224607 73 287 6.0 15.0 0.00 0.01 0.00 59 1013.0
20180921224119 73 321 4.0 15.0 0.00 0.01 0.00 58 1012.9
20180921223611 73 268 5.0 15.0 0.00 0.01 0.00 58 1013.0
20180921223104 74 339 10.0 15.0 0.00 0.01 0.00 57 1012.6
20180921222616 74 243 6.0 20.0 0.00 0.01 0.00 56 1012.4
20180921222111 74 272 9.0 20.0 0.00 0.01 0.00 55 1011.9
20180921221604 75 291 3.0 9.0 0.00 0.01 0.00 56 1012.2
20180921221114 75 358 5.0 16.0 0.00 0.01 0.00 56 1011.9
20180921220605 76 8 6.0 16.0 0.00 0.01 0.00 56 1011.6
20180921220118 76 234 6.0 19.0 0.00 0.01 0.00 55 1011.8
20180921215610 77 243 10.0 19.0 0.00 0.01 0.00 54 1011.6
20180921215102 77 323 7.0 12.0 0.00 0.01 0.00 54 1011.3
20180921214612 77 268 4.0 17.0 0.00 0.01 0.00 53 1011.4
20180921214103 77 296 9.0 19.0 0.00 0.02 0.00 52 1011.2
20180921213615 77 310 7.0 19.0 0.00 0.02 0.00 52 1011.4
20180921213108 77 262 5.0 16.0 0.00 0.02 0.00 51 1011.1
20180921212618 78 235 9.0 16.0 0.00 0.02 0.00 52 1011.0
20180921212110 78 269 10.0 19.0 0.00 0.02 0.00 50 1011.0
20180921211601 78 16 8.0 22.0 0.00 0.02 0.00 50 1011.0
20180921211114 78 252 12.0 22.0 0.00 0.02 0.00 51 1011.0
20180921210605 78 232 10.0 19.0 0.00 0.02 0.00 52 1010.6
20180921210117 78 238 7.0 19.0 0.00 0.02 0.00 53 1010.8
20180921205609 78 315 8.0 17.0 0.00 0.02 0.00 52 1011.0
20180921205100 79 304 7.0 22.0 0.00 0.02 0.00 53 1011.1
20180921204614 79 259 11.0 24.0 0.00 0.02 0.00 53 1010.8
20180921204105 79 281 7.0 24.0 0.00 0.02 0.00 51 1010.7
20180921203602 79 237 13.0 24.0 0.00 0.02 0.00 52 1010.9
20180921203113 79 241 12.0 23.0 0.00 0.02 0.00 53 1010.5
20180921202604 80 239 8.0 23.0 0.00 0.02 0.00 54 1010.8
20180921202116 79 246 11.0 23.0 0.00 0.02 0.00 55 1010.6
20180921201607 79 199 11.0 21.0 0.00 0.02 0.00 57 1010.5
20180921201100 79 238 6.0 17.0 0.00 0.02 0.00 60 1010.6
20180921200613 79 228 7.0 22.0 0.00 0.02 0.00 62 1010.5
20180921200105 79 236 6.0 22.0 0.00 0.02 0.00 61 1010.5
20180921195556 79 195 9.0 21.0 0.00 0.02 0.00 62 1010.5
20180921195106 78 205 5.0 25.0 0.00 0.02 0.00 61 1010.1
20180921194600 78 262 6.0 25.0 0.00 0.02 0.00 63 1010.1
20180921194109 79 307 4.0 21.0 0.00 0.02 0.00 66 1010.3
20180921193602 79 264 5.0 19.0 0.00 0.02 0.00 66 1010.1
20180921193114 79 328 7.0 18.0 0.00 0.02 0.00 67 1010.1
20180921192605 79 230 9.0 27.0 0.00 0.02 0.00 69 1010.5
20180921192056 79 244 8.0 27.0 0.00 0.02 0.00 68 1010.2
20180921191608 79 242 9.0 16.0 0.00 0.02 0.00 70 1010.0
20180921191059 79 293 7.0 25.0 0.00 0.02 0.00 71 1010.1
20180921190609 79 201 10.0 25.0 0.00 0.02 0.00 71 1010.0
20180921190103 79 193 4.0 15.0 0.00 0.02 0.00 73 1009.8
20180921185555 78 245 9.0 15.0 0.00 0.02 0.00 75 1010.1
20180921185108 78 226 5.0 17.0 0.00 0.02 0.00 73 1009.7
20180921184604 78 205 5.0 22.0 0.00 0.02 0.00 73 1009.8
20180921184054 79 231 6.0 20.0 0.00 0.02 0.00 73 1010.2
20180921183606 79 235 6.0 23.0 0.00 0.02 0.00 73 1010.2
20180921183058 79 220 8.0 23.0 0.00 0.02 0.00 72 1009.9
20180921182610 79 205 11.0 22.0 0.00 0.02 0.00 72 1009.8
20180921182102 79 276 7.0 23.0 0.00 0.02 0.00 72 1009.9
20180921181612 79 198 10.0 22.0 0.00 0.02 0.00 72 1009.9
20180921181102 79 308 7.0 24.0 0.00 0.02 0.00 73 1009.9
20180921180554 79 229 9.0 24.0 0.00 0.02 0.00 73 1009.7
20180921180105 79 134 6.0 21.0 0.00 0.02 0.00 75 1009.4
20180921175557 79 258 6.0 17.0 0.00 0.02 0.00 78 1009.4
20180921175110 78 205 9.0 17.0 0.00 0.02 0.00 77 1009.6
20180921174601 78 214 8.0 19.0 0.00 0.02 0.00 78 1010.1
20180921174051 78 257 6.0 19.0 0.00 0.02 0.00 78 1009.5
20180921173604 78 200 9.0 22.0 0.00 0.02 0.00 77 1009.9
20180921173053 78 213 9.0 22.0 0.00 0.02 0.00 77 1010.2
20180921172603 78 208 15.0 22.0 0.00 0.02 0.00 77 1009.7
20180921172054 78 199 9.0 25.0 0.00 0.02 0.00 78 1009.8
20180921171604 78 210 10.0 25.0 0.01 0.02 0.00 77 1009.4
20180921171055 78 209 5.0 18.0 0.01 0.02 0.00 77 1009.5
20180921170606 78 236 9.0 20.0 0.01 0.02 0.00 77 1009.5
20180921170100 78 171 9.0 20.0 0.01 0.02 0.00 77 1010.0
20180921165555 78 265 7.0 20.0 0.01 0.02 0.00 76 1009.5
20180921165105 78 144 4.0 23.0 0.01 0.02 0.00 76 1009.6
20180921164552 78 236 11.0 23.0 0.01 0.02 0.00 76 1009.9
20180921164103 78 173 8.0 17.0 0.01 0.02 0.00 76 1009.6
20180921163553 78 206 8.0 19.0 0.01 0.02 0.00 76 1009.6
20180921163101 78 205 11.0 19.0 0.01 0.02 0.00 75 1009.9
20180921162554 79 249 6.0 21.0 0.01 0.02 0.00 74 1009.8
20180921162105 79 218 14.0 25.0 0.01 0.02 0.00 73 1009.7
20180921161558 79 181 7.0 25.0 0.00 0.01 0.00 73 1009.7
20180921161048 79 211 6.0 20.0 0.00 0.01 0.00 74 1009.9
20180921160558 79 225 12.0 20.0 0.00 0.01 0.00 75 1009.8
20180921160050 79 207 9.0 17.0 0.00 0.01 0.00 75 1009.7
20180921155601 79 207 4.0 17.0 0.00 0.01 0.00 76 1009.5
20180921155053 79 188 3.0 21.0 0.00 0.01 0.00 77 1009.6
20180921154605 79 174 9.0 21.0 0.00 0.01 0.00 77 1009.3
20180921154055 79 186 9.0 19.0 0.00 0.01 0.00 77 1009.5
20180921153548 79 219 6.0 16.0 0.00 0.01 0.00 75 1009.7
20180921153059 79 168 10.0 22.0 0.00 0.01 0.00 76 1009.0
20180921152550 79 207 9.0 22.0 0.00 0.01 0.00 75 1008.9
20180921152102 79 180 6.0 19.0 0.00 0.01 0.00 75 1008.9
20180921151553 80 160 11.0 19.0 0.00 0.01 0.00 74 1009.1
20180921151045 80 210 10.0 19.0 0.00 0.01 0.00 73 1009.1
20180921150556 80 209 5.0 20.0 0.00 0.01 0.00 72 1009.0
20180921150052 81 202 8.0 21.0 0.00 0.01 0.00 71 1009.1
20180921145602 82 196 11.0 21.0 0.00 0.01 0.00 70 1009.5
20180921145052 82 177 11.0 18.0 0.00 0.01 0.00 70 1009.3
20180921144543 82 251 9.0 17.0 0.00 0.01 0.00 72 1009.3
20180921144054 81 191 7.0 25.0 0.00 0.01 0.00 72 1009.2
20180921143546 81 163 13.0 25.0 0.00 0.01 0.00 73 1009.6
20180921143056 81 163 9.0 21.0 0.00 0.01 0.00 74 1009.8
20180921142547 80 289 4.0 21.0 0.00 0.01 0.00 74 1009.7
20180921142058 80 183 6.0 20.0 0.00 0.01 0.00 74 1009.8
20180921141548 80 199 12.0 20.0 0.00 0.01 0.00 75 1009.8
20180921141101 80 162 6.0 17.0 0.00 0.01 0.00 75 1010.0
20180921140551 79 187 11.0 17.0 0.00 0.01 0.00 75 1010.0
20180921140103 79 196 8.0 15.0 0.00 0.01 0.00 76 1009.9
20180921135553 79 184 6.0 13.0 0.00 0.01 0.00 77 1010.1
20180921135044 79 215 6.0 13.0 0.00 0.01 0.00 77 1010.2
20180921134553 78 206 5.0 15.0 0.00 0.01 0.00 77 1010.4
20180921134042 78 176 5.0 15.0 0.00 0.01 0.00 78 1010.0
20180921133553 78 216 6.0 19.0 0.00 0.01 0.00 78 1010.3
20180921133044 78 248 7.0 19.0 0.00 0.01 0.00 77 1010.2
20180921132556 78 176 14.0 17.0 0.00 0.01 0.00 78 1009.9
20180921132045 78 182 8.0 21.0 0.00 0.01 0.00 79 1009.9
20180921131556 77 178 11.0 21.0 0.00 0.01 0.00 80 1009.8
20180921131046 77 206 14.0 20.0 0.00 0.01 0.00 80 1010.1
20180921130541 76 184 7.0 17.0 0.00 0.01 0.00 82 1010.1
20180921130052 76 217 7.0 15.0 0.00 0.01 0.00 83 1009.7
20180921125544 75 264 5.0 15.0 0.00 0.01 0.00 83 1009.9
20180921125057 75 185 9.0 18.0 0.00 0.01 0.00 84 1009.9
20180921124549 75 182 8.0 18.0 0.00 0.01 0.00 85 1010.5
20180921124057 75 185 8.0 18.0 0.00 0.01 0.00 85 1010.1
20180921123549 74 204 6.0 17.0 0.00 0.01 0.00 85 1010.4
20180921123041 74 148 7.0 17.0 0.00 0.01 0.00 86 1010.5
20180921122553 74 179 7.0 16.0 0.00 0.01 0.00 86 1010.1
20180921122044 74 187 12.0 19.0 0.00 0.01 0.00 87 1010.5
20180921121553 74 191 9.0 19.0 0.00 0.01 0.00 88 1010.2
20180921121047 74 176 8.0 18.0 0.00 0.01 0.00 88 1010.5
20180921120538 73 170 9.0 17.0 0.00 0.01 0.00 88 1010.2
20180921120047 73 187 6.0 13.0 0.00 0.01 0.00 89 1010.0
20180921115539 73 175 6.0 15.0 0.00 0.01 0.00 89 1010.2
20180921115051 73 191 7.0 18.0 0.00 0.01 0.00 90 1010.5
20180921114544 73 164 7.0 18.0 0.00 0.01 0.00 90 1010.3
20180921114055 73 183 10.0 14.0 0.00 0.01 0.00 90 1010.2
20180921113546 73 198 5.0 13.0 0.00 0.01 0.00 90 1010.4
20180921113037 73 179 5.0 16.0 0.00 0.01 0.00 90 1010.5
20180921112547 73 173 7.0 16.0 0.00 0.01 0.00 90 1010.7
20180921112038 73 182 7.0 15.0 0.00 0.01 0.00 90 1010.8
20180921111550 73 192 8.0 15.0 0.00 0.01 0.00 91 1010.6
20180921111046 73 184 5.0 14.0 0.00 0.01 0.00 91 1010.3
20180921110536 73 172 6.0 14.0 0.00 0.01 0.00 91 1010.4
20180921110049 73 189 7.0 14.0 0.00 0.01 0.00 91 1010.3
20180921105538 73 208 8.0 14.0 0.00 0.01 0.00 91 1010.5
20180921105047 73 152 9.0 14.0 0.00 0.01 0.00 92 1010.2
20180921104537 73 173 8.0 14.0 0.00 0.01 0.00 93 1010.6
20180921104049 73 190 9.0 14.0 0.00 0.01 0.00 93 1010.5
20180921103540 72 190 6.0 14.0 0.00 0.01 0.00 93 1010.4
20180921103032 72 159 7.0 14.0 0.00 0.01 0.00 93 1010.7
20180921102545 72 188 5.0 14.0 0.00 0.01 0.00 93 1010.6
20180921102036 72 184 5.0 14.0 0.00 0.01 0.00 94 1010.7
20180921101548 72 177 4.0 12.0 0.00 0.01 0.00 94 1010.9
20180921101038 72 191 7.0 12.0 0.00 0.01 0.00 94 1010.8
20180921100549 72 216 5.0 12.0 0.00 0.01 0.00 95 1011.0
20180921100141 72 174 6.0 14.0 0.00 0.01 0.00 95 1010.7
20180921095651 72 173 8.0 14.0 0.00 0.01 0.00 95 1011.1
20180921095143 72 211 5.0 13.0 0.00 0.01 0.00 95 1010.7
20180921094651 72 177 7.0 13.0 0.00 0.01 0.00 95 1010.8
20180921094142 72 188 7.0 12.0 0.00 0.01 0.00 96 1010.7
20180921093633 72 160 5.0 13.0 0.00 0.01 0.00 97 1011.2
20180921093143 72 190 7.0 13.0 0.00 0.01 0.00 96 1010.7
20180921092635 72 139 2.0 12.0 0.00 0.01 0.00 96 1011.0
20180921092145 72 159 6.0 12.0 0.00 0.01 0.00 97 1010.8
20180921091636 72 127 5.0 11.0 0.00 0.01 0.00 97 1011.0
20180921091147 71 174 4.0 8.0 0.00 0.01 0.00 97 1011.2
20180921090640 71 195 5.0 8.0 0.00 0.01 0.00 98 1011.4
20180921090130 71 183 6.0 7.0 0.00 0.01 0.00 98 1011.3
20180921085641 72 189 4.0 7.0 0.00 0.01 0.00 98 1011.2
20180921085136 72 162 3.0 8.0 0.00 0.01 0.00 98 1011.8
20180921084646 71 186 5.0 9.0 0.00 0.01 0.00 98 1011.4
20180921084134 71 198 3.0 9.0 0.00 0.01 0.00 99 1011.6
20180921083644 72 189 6.0 10.0 0.00 0.01 0.00 98 1011.4
20180921083135 71 189 4.0 8.0 0.00 0.01 0.00 99 1011.5
20180921082648 71 216 5.0 10.0 0.00 0.01 0.00 99 1011.3
20180921082139 71 173 4.0 13.0 0.00 0.01 0.00 100 1011.4
20180921081629 71 167 5.0 13.0 0.00 0.01 0.00 100 1011.6
20180921081142 71 194 3.0 11.0 0.00 0.01 0.00 99 1011.6
20180921080634 71 163 5.0 11.0 0.00 0.01 0.00 100 1011.3
20180921080146 71 236 4.0 10.0 0.00 0.01 0.00 100 1011.5
20180921075638 71 218 6.0 10.0 0.00 0.01 0.00 100 1011.7
20180921075132 71 177 5.0 8.0 0.00 0.01 0.00 100 1011.8
20180921074646 71 196 5.0 10.0 0.00 0.01 0.00 100 1011.8
20180921074140 71 179 6.0 10.0 0.00 0.01 0.00 100 1012.0
20180921073632 70 196 5.0 8.0 0.00 0.01 0.00 100 1012.0
20180921073142 70 174 3.0 8.0 0.00 0.01 0.00 100 1011.7
20180921072632 70 173 3.0 7.0 0.00 0.01 0.00 100 1011.9
20180921072145 70 199 3.0 9.0 0.00 0.01 0.00 100 1011.9
20180921071636 70 179 4.0 9.0 0.00 0.01 0.00 100 1012.0
20180921071128 70 168 2.0 7.0 0.00 0.01 0.00 100 1011.7
20180921070639 70 180 4.0 7.0 0.00 0.01 0.00 100 1011.7
20180921070135 70 183 4.0 7.0 0.00 0.01 0.00 100 1011.9
20180921065647 70 151 4.0 8.0 0.00 0.01 0.00 100 1011.8
20180921065136 70 163 4.0 8.0 0.00 0.01 0.00 100 1012.1
20180921064628 70 155 3.0 7.0 0.00 0.01 0.00 100 1012.1
20180921064140 70 173 3.0 6.0 0.00 0.01 0.00 100 1011.9
20180921063631 70 167 3.0 6.0 0.00 0.01 0.00 100 1012.5
20180921063144 70 146 2.0 6.0 0.00 0.01 0.00 100 1012.0
20180921062634 70 156 1.0 6.0 0.00 0.01 0.00 100 1012.2
20180921062128 70 139 3.0 6.0 0.00 0.01 0.00 100 1012.1
20180921061641 70 190 3.0 6.0 0.00 0.01 0.00 100 1011.9
20180921061134 70 179 2.0 7.0 0.00 0.01 0.00 99 1012.3
20180921060625 70 162 3.0 7.0 0.00 0.01 0.00 100 1012.1
20180921060137 70 150 1.0 7.0 0.00 0.01 0.00 100 1012.4
20180921055629 70 156 3.0 6.0 0.00 0.01 0.00 99 1012.2
20180921055140 70 169 3.0 6.0 0.00 0.01 0.00 99 1012.3
20180921054631 69 171 3.0 6.0 0.00 0.01 0.00 99 1012.4
20180921054123 69 156 3.0 7.0 0.00 0.01 0.00 100 1012.2
20180921053635 69 156 3.0 7.0 0.00 0.01 0.00 100 1012.5
20180921053127 69 165 3.0 6.0 0.00 0.01 0.00 99 1012.3
20180921052639 69 165 2.0 7.0 0.00 0.01 0.00 99 1012.3
20180921052130 69 162 1.0 7.0 0.00 0.01 0.00 100 1012.3
20180921051625 69 163 3.0 6.0 0.00 0.01 0.00 100 1012.4
20180921051136 69 188 3.0 6.0 0.00 0.01 0.00 99 1012.5
20180921050625 69 192 3.0 5.0 0.00 0.01 0.00 99 1012.2
20180921050137 69 158 2.0 5.0 0.00 0.01 0.00 99 1012.7
20180921045628 69 162 1.0 5.0 0.00 0.01 0.00 99 1012.5
20180921045139 69 137 2.0 6.0 0.00 0.01 0.00 99 1012.6
20180921044630 69 137 1.0 6.0 0.00 0.01 0.00 99 1012.7
20180921044140 69 167 1.0 5.0 0.00 0.01 0.00 99 1012.7
20180921043631 69 156 2.0 5.0 0.00 0.01 0.00 99 1012.6
20180921043123 69 137 3.0 5.0 0.00 0.01 0.00 99 1012.9
20180921042635 69 130 2.0 5.0 0.00 0.01 0.00 100 1012.6
20180921042127 69 109 2.0 5.0 0.00 0.01 0.00 99 1012.8
20180921041639 69 109 1.0 5.0 0.00 0.01 0.00 99 1012.9
20180921041128 70 107 0.0 4.0 0.00 0.01 0.00 99 1012.6
20180921040620 70 107 1.0 3.0 0.00 0.01 0.00 99 1013.1
20180921040130 70 107 1.0 3.0 0.00 0.01 0.00 99 1013.0
20180921035622 70 107 1.0 4.0 0.00 0.01 0.00 99 1012.8
20180921035136 70 107 1.0 3.0 0.00 0.01 0.00 99 1012.7
20180921034623 70 107 2.0 5.0 0.00 0.01 0.00 99 1013.0
20180921034132 70 107 1.0 5.0 0.00 0.01 0.00 99 1013.1
20180921033622 70 107 1.0 3.0 0.00 0.01 0.00 99 1013.2
20180921033133 70 107 1.0 3.0 0.00 0.01 0.00 98 1013.0
20180921032624 70 107 0.0 4.0 0.00 0.01 0.00 99 1013.1
20180921032118 70 107 1.0 4.0 0.00 0.01 0.00 99 1012.9
20180921031630 70 106 1.0 5.0 0.00 0.01 0.00 99 1012.9
20180921031122 70 107 1.0 5.0 0.00 0.01 0.00 98 1013.0
20180921030633 70 106 2.0 5.0 0.00 0.01 0.00 98 1013.0
20180921030121 70 105 3.0 6.0 0.00 0.01 0.00 99 1012.9
20180921025632 70 103 2.0 6.0 0.00 0.01 0.00 98 1012.9
20180921025125 70 102 2.0 4.0 0.00 0.01 0.00 98 1012.8
20180921024636 70 103 2.0 4.0 0.00 0.01 0.00 98 1013.0
20180921024127 70 102 0.0 2.0 0.00 0.01 0.00 98 1012.9
20180921023618 70 102 0.0 3.0 0.00 0.01 0.00 98 1012.9
20180921023127 70 102 0.0 0.0 0.00 0.01 0.00 98 1012.9
20180921022619 70 102 0.0 1.0 0.00 0.01 0.00 98 1013.1
20180921022131 70 102 0.0 1.0 0.00 0.01 0.00 98 1013.2
20180921021623 70 102 0.0 0.0 0.00 0.01 0.00 98 1013.1
20180921021133 71 102 0.0 0.0 0.00 0.01 0.00 98 1013.1
20180921020625 71 102 0.0 1.0 0.00 0.01 0.00 98 1013.2
20180921020116 71 102 0.0 3.0 0.00 0.01 0.00 98 1013.3
20180921015627 71 103 0.0 5.0 0.00 0.01 0.00 97 1013.3
20180921015117 71 102 1.0 7.0 0.00 0.01 0.00 97 1013.6
20180921014627 71 85 3.0 8.0 0.00 0.01 0.00 97 1013.7
20180921014118 71 84 3.0 9.0 0.00 0.01 0.00 96 1013.7
20180921013627 71 97 4.0 9.0 0.00 0.01 0.00 96 1013.4
20180921013117 71 121 2.0 5.0 0.00 0.01 0.00 96 1014.4
20180921012628 71 128 1.0 3.0 0.00 0.01 0.00 96 1014.3
20180921012119 71 128 1.0 3.0 0.00 0.01 0.00 96 1014.3
20180921011615 71 128 0.0 0.0 0.00 0.01 0.00 95 1014.4
20180921011127 71 128 0.0 0.0 0.00 0.01 0.00 95 1014.7
20180921010617 72 128 0.0 0.0 0.00 0.01 0.00 95 1014.3
20180921010126 72 128 0.0 0.0 0.00 0.01 0.00 95 1014.5
20180921005617 72 128 0.0 0.0 0.00 0.01 0.00 94 1014.3
20180921005129 72 128 0.0 3.0 0.00 0.01 0.00 94 1014.5
20180921004619 72 128 1.0 3.0 0.00 0.01 0.00 93 1014.4
20180921004110 72 128 1.0 5.0 0.00 0.01 0.00 93 1014.1
20180921003622 72 128 2.0 5.0 0.00 0.01 0.00 93 1014.4
20180921003113 72 121 3.0 7.0 0.00 0.01 0.00 93 1014.3
20180921002623 72 130 3.0 7.0 0.00 0.01 0.00 93 1014.1
20180921002114 72 85 3.0 7.0 0.00 0.01 0.00 92 1014.2
20180921001625 72 118 4.0 7.0 0.00 0.01 0.00 92 1014.1
20180921001114 73 107 3.0 8.0 0.00 0.01 0.00 92 1014.3
20180921000627 73 121 3.0 8.0 0.00 0.01 0.00 92 1014.2
20180921000118 73 102 3.0 7.0 0.00 0.01 0.00 91 1014.0
20180920235629 73 85 3.0 7.0 0.00 0.01 0.00 91 1014.3
20180920235118 73 88 4.0 7.0 0.00 0.01 0.00 91 1013.9
20180920234629 73 82 3.0 7.0 0.00 0.01 0.00 90 1014.0
20180920234117 73 91 4.0 10.0 0.00 0.01 0.00 90 1014.1
20180920233626 73 123 2.0 10.0 0.00 0.01 0.00 89 1014.4
20180920233116 73 116 3.0 8.0 0.00 0.01 0.00 88 1014.7
20180920232624 73 127 3.0 11.0 0.00 0.01 0.00 88 1014.1
20180920232115 74 76 5.0 11.0 0.00 0.01 0.00 88 1014.4
20180920231611 74 99 3.0 11.0 0.00 0.01 0.00 87 1014.2